START_TIME,STEP,MOV.,EG07,t_acc.,EG08,t_acc.,EG09,t_acc.,EB05,t_acc.,EBP05,t_acc.
1979-08-06 09:00:21.360 ,0,0,0.,1.2,0.,1.2,0.,1.2,,0.0,,0.0
1979-08-06 09:00:22.560 ,0,0,1.,1.2,0.,1.2,0.,1.2,,0.0,,0.0
1979-08-06 09:00:23.760 ,0,0,1.,1.2,0.,1.2,0.,1.2,,0.0,,0.0
1979-08-06 09:00:24.960 ,0,0,1.,1.2,1.,1.2,0.,1.2,,0.0,,0.0
1979-08-06 09:00:26.160 ,0,0,3.,1.2,1.,1.2,1.,1.2,,0.0,,0.0
1979-08-06 09:00:27.360 ,0,0,3.,1.2,0.,1.2,0.,1.2,,0.0,,0.0
1979-08-06 09:00:28.560 ,0,0,0.,1.2,0.,1.2,0.,1.2,,0.0,,0.0
1979-08-06 09:00:29.760 ,0,0,2.,1.2,0.,1.2,0.,1.2,,0.0,,0.0
1979-08-06 09:00:30.960 ,0,0,2.,1.2,1.,1.2,0.,1.2,,0.0,,0.0
1979-08-06 09:00:32.160 ,0,0,0.,1.2,0.,1.2,0.,1.2,,0.0,,0.0
1979-08-06 09:00:33.360 ,0,0,1.,1.2,0.,1.2,0.,1.2,,0.0,,0.0
1979-08-06 09:00:34.560 ,0,0,2.,1.2,1.,1.2,0.,1.2,,0.0,,0.0
1979-08-06 09:00:35.760 ,0,0,2.,1.2,1.,1.2,0.,1.2,,0.0,,0.0
1979-08-06 09:00:36.960 ,0,0,2.,1.2,0.,1.2,0.,1.2,,0.0,,0.0
1979-08-06 09:00:38.160 ,0,0,0.,1.2,0.,1.2,0.,1.2,,0.0,,0.0
1979-08-06 09:00:39.360 ,0,0,2.,1.2,1.,1.2,0.,1.2,,0.0,,0.0
1979-08-06 09:00:40.560 ,0,0,0.,1.2,0.,1.2,0.,1.2,,0.0,,0.0
1979-08-06 09:00:41.760 ,0,0,0.,1.2,0.,1.2,0.,1.2,,0.0,,0.0
1979-08-06 09:00:42.960 ,0,0,1.,1.2,0.,1.2,0.,1.2,,0.0,,0.0
1979-08-06 09:00:44.160 ,0,0,1.,1.2,0.,1.2,0.,1.2,,0.0,,0.0
1979-08-06 09:00:45.360 ,0,0,2.,1.2,0.,1.2,0.,1.2,,0.0,,0.0
1979-08-06 09:00:46.560 ,0,0,4.,1.2,0.,1.2,0.,1.2,,0.0,,0.0
1979-08-06 09:00:47.760 ,0,0,1.,1.2,1.,1.2,0.,1.2,,0.0,,0.0
1979-08-06 09:00:48.960 ,0,0,1.,1.2,0.,1.2,0.,1.2,,0.0,,0.0
1979-08-06 09:00:50.160 ,0,0,0.,1.2,0.,1.2,0.,1.2,,0.0,,0.0
1979-08-06 09:00:51.360 ,0,0,0.,1.2,0.,1.2,0.,1.2,,0.0,,0.0
1979-08-06 09:00:52.560 ,0,0,1.,1.2,0.,1.2,0.,1.2,,0.0,,0.0
1979-08-06 09:00:53.760 ,0,0,1.,1.2,0.,1.2,0.,1.2,,0.0,,0.0
1979-08-06 09:00:54.960 ,0,0,0.,1.2,0.,1.2,0.,1.2,,0.0,,0.0
1979-08-06 09:00:56.160 ,0,0,3.,1.2,0.,1.2,0.,1.2,,0.0,,0.0
1979-08-06 09:00:57.360 ,0,0,3.,1.2,1.,1.2,0.,1.2,,0.0,,0.0
1979-08-06 09:00:58.560 ,0,0,1.,1.2,0.,1.2,0.,1.2,,0.0,,0.0
1979-08-06 09:00:59.760 ,0,0,2.,1.2,1.,1.2,0.,1.2,,0.0,,0.0
1979-08-06 09:01:00.960 ,0,0,1.,1.2,0.,1.2,0.,1.2,,0.0,,0.0
1979-08-06 09:01:02.160 ,0,0,1.,1.2,0.,1.2,0.,1.2,,0.0,,0.0
1979-08-06 09:01:03.360 ,0,0,0.,1.2,0.,1.2,0.,1.2,,0.0,,0.0
1979-08-06 09:01:04.560 ,0,0,1.,1.2,0.,1.2,0.,1.2,,0.0,,0.0
1979-08-06 09:01:05.760 ,0,0,1.,1.2,0.,1.2,0.,1.2,,0.0,,0.0
1979-08-06 09:01:06.960 ,0,0,0.,1.2,0.,1.2,0.,1.2,,0.0,,0.0
1979-08-06 09:01:08.160 ,0,0,0.,1.2,0.,1.2,0.,1.2,,0.0,,0.0
1979-08-06 09:01:09.360 ,0,0,4.,1.2,0.,1.2,0.,1.2,,0.0,,0.0
1979-08-06 09:01:10.560 ,0,0,0.,1.2,0.,1.2,0.,1.2,,0.0,,0.0
1979-08-06 09:01:11.760 ,0,0,1.,1.2,1.,1.2,0.,1.2,,0.0,,0.0
1979-08-06 09:01:12.960 ,0,0,0.,1.2,0.,1.2,0.,1.2,,0.0,,0.0
1979-08-06 09:01:14.160 ,0,0,1.,1.2,1.,1.2,0.,1.2,,0.0,,0.0
1979-08-06 09:01:15.360 ,0,0,2.,1.2,0.,1.2,0.,1.2,,0.0,,0.0
1979-08-06 09:01:16.560 ,0,0,1.,1.2,0.,1.2,0.,1.2,,0.0,,0.0
1979-08-06 09:01:17.760 ,0,0,0.,1.2,0.,1.2,0.,1.2,,0.0,,0.0
1979-08-06 09:01:18.960 ,0,0,0.,1.2,0.,1.2,0.,1.2,,0.0,,0.0
1979-08-06 09:01:20.160 ,0,0,1.,1.2,1.,1.2,1.,1.2,,0.0,,0.0
1979-08-06 09:01:21.360 ,0,0,0.,1.2,0.,1.2,0.,1.2,,0.0,,0.0
1979-08-06 09:01:22.560 ,0,0,1.,1.2,0.,1.2,0.,1.2,,0.0,,0.0
1979-08-06 09:01:23.760 ,0,0,0.,1.2,0.,1.2,0.,1.2,,0.0,,0.0
1979-08-06 09:01:24.960 ,0,0,2.,1.2,0.,1.2,0.,1.2,,0.0,,0.0
1979-08-06 09:01:26.160 ,0,0,2.,1.2,1.,1.2,0.,1.2,,0.0,,0.0
1979-08-06 09:01:27.360 ,0,0,1.,1.2,0.,1.2,0.,1.2,,0.0,,0.0
1979-08-06 09:01:28.560 ,0,0,2.,1.2,0.,1.2,0.,1.2,,0.0,,0.0
1979-08-06 09:01:29.760 ,0,0,2.,1.2,1.,1.2,1.,1.2,,0.0,,0.0
1979-08-06 09:01:30.960 ,0,0,1.,1.2,1.,1.2,0.,1.2,,0.0,,0.0
1979-08-06 09:01:32.160 ,0,0,0.,1.2,0.,1.2,0.,1.2,,0.0,,0.0
1979-08-06 09:01:33.360 ,1,0,3.,1.2,0.,1.2,0.,1.2,,0.0,,0.0
1979-08-06 09:01:34.560 ,1,0,3.,1.2,1.,1.2,0.,1.2,,0.0,,0.0
1979-08-06 09:01:35.760 ,1,0,1.,1.2,0.,1.2,0.,1.2,,0.0,,0.0
1979-08-06 09:01:36.960 ,1,0,0.,1.2,0.,1.2,0.,1.2,,0.0,,0.0
1979-08-06 09:01:38.160 ,1,0,1.,1.2,0.,1.2,0.,1.2,,0.0,,0.0
1979-08-06 09:01:39.360 ,1,0,2.,1.2,0.,1.2,0.,1.2,,0.0,,0.0
1979-08-06 09:01:40.560 ,1,0,1.,1.2,0.,1.2,0.,1.2,,0.0,,0.0
1979-08-06 09:01:41.760 ,1,0,1.,1.2,0.,1.2,0.,1.2,,0.0,,0.0
1979-08-06 09:01:42.960 ,1,0,1.,1.2,0.,1.2,0.,1.2,,0.0,,0.0
1979-08-06 09:01:44.160 ,1,0,2.,1.2,0.,1.2,0.,1.2,,0.0,,0.0
1979-08-06 09:01:45.360 ,1,0,1.,1.2,0.,1.2,0.,1.2,,0.0,,0.0
1979-08-06 09:01:46.560 ,1,0,2.,1.2,0.,1.2,0.,1.2,,0.0,,0.0
1979-08-06 09:01:47.760 ,1,0,3.,1.2,2.,1.2,1.,1.2,,0.0,,0.0
1979-08-06 09:01:48.960 ,1,0,1.,1.2,0.,1.2,0.,1.2,,0.0,,0.0
1979-08-06 09:01:50.160 ,1,0,1.,1.2,0.,1.2,0.,1.2,,0.0,,0.0
1979-08-06 09:01:51.360 ,1,0,2.,1.2,1.,1.2,0.,1.2,,0.0,,0.0
1979-08-06 09:01:52.560 ,1,0,0.,1.2,0.,1.2,0.,1.2,,0.0,,0.0
1979-08-06 09:01:53.760 ,1,0,2.,1.2,0.,1.2,0.,1.2,,0.0,,0.0
1979-08-06 09:01:54.960 ,1,0,3.,1.2,0.,1.2,0.,1.2,,0.0,,0.0
1979-08-06 09:01:56.160 ,1,0,2.,1.2,1.,1.2,0.,1.2,,0.0,,0.0
1979-08-06 09:01:57.360 ,1,0,2.,1.2,0.,1.2,0.,1.2,,0.0,,0.0
1979-08-06 09:01:58.560 ,1,0,2.,1.2,0.,1.2,0.,1.2,,0.0,,0.0
1979-08-06 09:01:59.760 ,1,0,2.,1.2,0.,1.2,0.,1.2,,0.0,,0.0
1979-08-06 09:02:00.960 ,1,0,1.,1.2,0.,1.2,0.,1.2,,0.0,,0.0
1979-08-06 09:02:02.160 ,1,0,1.,1.2,0.,1.2,0.,1.2,,0.0,,0.0
1979-08-06 09:02:03.360 ,1,0,1.,1.2,0.,1.2,0.,1.2,,0.0,,0.0
1979-08-06 09:02:04.560 ,1,0,3.,1.2,0.,1.2,0.,1.2,,0.0,,0.0
1979-08-06 09:02:05.760 ,1,0,3.,1.2,0.,1.2,0.,1.2,,0.0,,0.0
1979-08-06 09:02:06.960 ,1,0,0.,1.2,0.,1.2,0.,1.2,,0.0,,0.0
1979-08-06 09:02:08.160 ,1,0,0.,1.2,0.,1.2,0.,1.2,,0.0,,0.0
1979-08-06 09:02:09.360 ,1,0,2.,1.2,0.,1.2,0.,1.2,,0.0,,0.0
1979-08-06 09:02:10.560 ,1,0,0.,1.2,0.,1.2,0.,1.2,,0.0,,0.0
1979-08-06 09:02:11.760 ,1,0,1.,1.2,0.,1.2,0.,1.2,,0.0,,0.0
1979-08-06 09:02:12.960 ,1,0,0.,1.2,0.,1.2,0.,1.2,,0.0,,0.0
1979-08-06 09:02:14.160 ,1,0,2.,1.2,0.,1.2,0.,1.2,,0.0,,0.0
1979-08-06 09:02:15.360 ,1,0,3.,1.2,0.,1.2,0.,1.2,,0.0,,0.0
1979-08-06 09:02:16.560 ,1,0,0.,1.2,0.,1.2,0.,1.2,,0.0,,0.0
1979-08-06 09:02:17.760 ,1,0,1.,1.2,0.,1.2,0.,1.2,,0.0,,0.0
1979-08-06 09:02:18.960 ,1,0,2.,1.2,0.,1.2,0.,1.2,,0.0,,0.0
1979-08-06 09:02:20.160 ,1,0,1.,1.2,0.,1.2,0.,1.2,,0.0,,0.0
1979-08-06 09:02:21.360 ,2,0,1.,1.2,0.,1.2,0.,1.2,,0.0,,0.0
1979-08-06 09:02:22.560 ,2,0,0.,1.2,0.,1.2,0.,1.2,,0.0,,0.0
1979-08-06 09:02:23.760 ,2,0,1.,1.2,0.,1.2,0.,1.2,,0.0,,0.0
1979-08-06 09:02:24.960 ,2,0,1.,1.2,0.,1.2,0.,1.2,,0.0,,0.0
1979-08-06 09:02:26.160 ,2,0,2.,1.2,1.,1.2,0.,1.2,,0.0,,0.0
1979-08-06 09:02:27.360 ,2,0,0.,1.2,0.,1.2,0.,1.2,,0.0,,0.0
1979-08-06 09:02:28.560 ,2,0,1.,1.2,0.,1.2,0.,1.2,,0.0,,0.0
1979-08-06 09:02:29.760 ,2,0,2.,1.2,0.,1.2,0.,1.2,,0.0,,0.0
1979-08-06 09:02:30.960 ,2,0,2.,1.2,1.,1.2,0.,1.2,,0.0,,0.0
1979-08-06 09:02:32.160 ,2,0,1.,1.2,0.,1.2,0.,1.2,,0.0,,0.0
1979-08-06 09:02:33.360 ,2,0,2.,1.2,0.,1.2,0.,1.2,,0.0,,0.0
1979-08-06 09:02:34.560 ,2,0,0.,1.2,0.,1.2,0.,1.2,,0.0,,0.0
1979-08-06 09:02:35.760 ,2,0,2.,1.2,0.,1.2,0.,1.2,,0.0,,0.0
1979-08-06 09:02:36.960 ,2,0,1.,1.2,0.,1.2,0.,1.2,,0.0,,0.0
1979-08-06 09:02:38.160 ,2,0,1.,1.2,0.,1.2,0.,1.2,,0.0,,0.0
1979-08-06 09:02:39.360 ,2,0,1.,1.2,0.,1.2,0.,1.2,,0.0,,0.0
1979-08-06 09:02:40.560 ,2,0,3.,1.2,0.,1.2,0.,1.2,,0.0,,0.0
1979-08-06 09:02:41.760 ,2,0,0.,1.2,0.,1.2,0.,1.2,,0.0,,0.0
1979-08-06 09:02:42.960 ,2,0,1.,1.2,0.,1.2,0.,1.2,,0.0,,0.0
1979-08-06 09:02:44.160 ,2,0,3.,1.2,1.,1.2,0.,1.2,,0.0,,0.0
1979-08-06 09:02:45.360 ,2,0,3.,1.2,1.,1.2,0.,1.2,,0.0,,0.0
1979-08-06 09:02:46.560 ,2,0,2.,1.2,0.,1.2,0.,1.2,,0.0,,0.0
1979-08-06 09:02:47.760 ,2,0,1.,1.2,0.,1.2,0.,1.2,,0.0,,0.0
1979-08-06 09:02:48.960 ,2,0,0.,1.2,0.,1.2,0.,1.2,,0.0,,0.0
1979-08-06 09:02:50.160 ,2,0,1.,1.2,0.,1.2,0.,1.2,,0.0,,0.0
1979-08-06 09:02:51.360 ,2,0,2.,1.2,0.,1.2,0.,1.2,,0.0,,0.0
1979-08-06 09:02:52.560 ,2,0,2.,1.2,0.,1.2,0.,1.2,,0.0,,0.0
1979-08-06 09:02:53.760 ,2,0,0.,1.2,0.,1.2,0.,1.2,,0.0,,0.0
1979-08-06 09:02:54.960 ,2,0,1.,1.2,0.,1.2,0.,1.2,,0.0,,0.0
1979-08-06 09:02:56.160 ,2,0,1.,1.2,0.,1.2,0.,1.2,,0.0,,0.0
1979-08-06 09:02:57.360 ,2,0,1.,1.2,0.,1.2,0.,1.2,,0.0,,0.0
1979-08-06 09:02:58.560 ,2,0,2.,1.2,0.,1.2,0.,1.2,,0.0,,0.0
1979-08-06 09:02:59.760 ,2,0,2.,1.2,0.,1.2,0.,1.2,,0.0,,0.0
1979-08-06 09:03:00.960 ,2,0,0.,1.2,0.,1.2,0.,1.2,,0.0,,0.0
1979-08-06 09:03:02.160 ,2,0,0.,1.2,0.,1.2,0.,1.2,,0.0,,0.0
1979-08-06 09:03:03.360 ,2,0,1.,1.2,1.,1.2,0.,1.2,,0.0,,0.0
1979-08-06 09:03:04.560 ,2,0,0.,1.2,0.,1.2,0.,1.2,,0.0,,0.0
1979-08-06 09:03:05.760 ,2,0,2.,1.2,0.,1.2,0.,1.2,,0.0,,0.0
1979-08-06 09:03:06.960 ,2,0,2.,1.2,0.,1.2,0.,1.2,,0.0,,0.0
1979-08-06 09:03:08.160 ,2,0,2.,1.2,0.,1.2,0.,1.2,,0.0,,0.0
1979-08-06 09:03:09.360 ,3,0,3.,1.2,0.,1.2,0.,1.2,,0.0,,0.0
1979-08-06 09:03:10.560 ,3,0,0.,1.2,0.,1.2,0.,1.2,,0.0,,0.0
1979-08-06 09:03:11.760 ,3,0,1.,1.2,0.,1.2,0.,1.2,,0.0,,0.0
1979-08-06 09:03:12.960 ,3,0,0.,1.2,0.,1.2,0.,1.2,,0.0,,0.0
1979-08-06 09:03:14.160 ,3,0,1.,1.2,0.,1.2,0.,1.2,,0.0,,0.0
1979-08-06 09:03:15.360 ,3,0,1.,1.2,0.,1.2,0.,1.2,,0.0,,0.0
1979-08-06 09:03:16.560 ,3,0,2.,1.2,0.,1.2,0.,1.2,,0.0,,0.0
1979-08-06 09:03:17.760 ,3,0,0.,1.2,0.,1.2,0.,1.2,,0.0,,0.0
1979-08-06 09:03:18.960 ,3,0,0.,1.2,0.,1.2,0.,1.2,,0.0,,0.0
1979-08-06 09:03:20.160 ,3,0,1.,1.2,1.,1.2,0.,1.2,,0.0,,0.0
1979-08-06 09:03:21.360 ,3,0,2.,1.2,0.,1.2,0.,1.2,,0.0,,0.0
1979-08-06 09:03:22.560 ,3,0,3.,1.2,2.,1.2,0.,1.2,,0.0,,0.0
1979-08-06 09:03:23.760 ,3,0,0.,1.2,0.,1.2,0.,1.2,,0.0,,0.0
1979-08-06 09:03:24.960 ,3,0,2.,1.2,0.,1.2,0.,1.2,,0.0,,0.0
1979-08-06 09:03:26.160 ,3,0,0.,1.2,0.,1.2,0.,1.2,,0.0,,0.0
1979-08-06 09:03:27.360 ,3,0,1.,1.2,0.,1.2,0.,1.2,,0.0,,0.0
1979-08-06 09:03:28.560 ,3,0,1.,1.2,0.,1.2,0.,1.2,,0.0,,0.0
1979-08-06 09:03:29.760 ,3,0,1.,1.2,0.,1.2,0.,1.2,,0.0,,0.0
1979-08-06 09:03:30.960 ,3,0,0.,1.2,0.,1.2,0.,1.2,,0.0,,0.0
1979-08-06 09:03:32.160 ,3,0,0.,1.2,0.,1.2,0.,1.2,,0.0,,0.0
1979-08-06 09:03:33.360 ,3,0,1.,1.2,0.,1.2,0.,1.2,,0.0,,0.0
1979-08-06 09:03:34.560 ,3,0,0.,1.2,0.,1.2,0.,1.2,,0.0,,0.0
1979-08-06 09:03:35.760 ,3,0,0.,1.2,0.,1.2,0.,1.2,,0.0,,0.0
1979-08-06 09:03:36.960 ,3,0,1.,1.2,1.,1.2,1.,1.2,,0.0,,0.0
1979-08-06 09:03:38.160 ,3,0,2.,1.2,0.,1.2,0.,1.2,,0.0,,0.0
1979-08-06 09:03:39.360 ,3,0,0.,1.2,0.,1.2,0.,1.2,,0.0,,0.0
1979-08-06 09:03:40.560 ,3,0,0.,1.2,0.,1.2,0.,1.2,,0.0,,0.0
1979-08-06 09:03:41.760 ,3,0,1.,1.2,0.,1.2,0.,1.2,,0.0,,0.0
1979-08-06 09:03:42.960 ,3,0,1.,1.2,0.,1.2,0.,1.2,,0.0,,0.0
1979-08-06 09:03:44.160 ,3,0,1.,1.2,0.,1.2,0.,1.2,,0.0,,0.0
1979-08-06 09:03:45.360 ,3,0,0.,1.2,0.,1.2,0.,1.2,,0.0,,0.0
1979-08-06 09:03:46.560 ,3,0,0.,1.2,0.,1.2,0.,1.2,,0.0,,0.0
1979-08-06 09:03:47.760 ,3,0,0.,1.2,0.,1.2,0.,1.2,,0.0,,0.0
1979-08-06 09:03:48.960 ,3,0,0.,1.2,0.,1.2,0.,1.2,,0.0,,0.0
1979-08-06 09:03:50.160 ,3,0,2.,1.2,1.,1.2,1.,1.2,,0.0,,0.0
1979-08-06 09:03:51.360 ,3,0,0.,1.2,0.,1.2,0.,1.2,,0.0,,0.0
1979-08-06 09:03:52.560 ,3,0,0.,1.2,0.,1.2,0.,1.2,,0.0,,0.0
1979-08-06 09:03:53.760 ,3,0,0.,1.2,0.,1.2,0.,1.2,,0.0,,0.0
1979-08-06 09:03:54.960 ,3,0,0.,1.2,0.,1.2,0.,1.2,,0.0,,0.0
1979-08-06 09:03:56.160 ,3,0,0.,1.2,0.,1.2,0.,1.2,,0.0,,0.0
1979-08-06 09:03:57.360 ,4,0,0.,1.2,0.,1.2,0.,1.2,,0.0,,0.0
1979-08-06 09:03:58.560 ,4,0,1.,1.2,0.,1.2,0.,1.2,,0.0,,0.0
1979-08-06 09:03:59.760 ,4,0,2.,1.2,0.,1.2,0.,1.2,,0.0,,0.0
1979-08-06 09:04:00.960 ,4,0,2.,1.2,0.,1.2,0.,1.2,,0.0,,0.0
1979-08-06 09:04:02.160 ,4,0,2.,1.2,1.,1.2,0.,1.2,,0.0,,0.0
1979-08-06 09:04:03.360 ,4,0,1.,1.2,0.,1.2,0.,1.2,,0.0,,0.0
1979-08-06 09:04:04.560 ,4,0,1.,1.2,1.,1.2,0.,1.2,,0.0,,0.0
1979-08-06 09:04:05.760 ,4,0,0.,1.2,0.,1.2,0.,1.2,,0.0,,0.0
1979-08-06 09:04:06.960 ,4,0,0.,1.2,0.,1.2,0.,1.2,,0.0,,0.0
1979-08-06 09:04:08.160 ,4,0,1.,1.2,0.,1.2,0.,1.2,,0.0,,0.0
1979-08-06 09:04:09.360 ,4,0,3.,1.2,1.,1.2,0.,1.2,,0.0,,0.0
1979-08-06 09:04:10.560 ,4,0,1.,1.2,0.,1.2,0.,1.2,,0.0,,0.0
1979-08-06 09:04:11.760 ,4,0,2.,1.2,0.,1.2,0.,1.2,,0.0,,0.0
1979-08-06 09:04:12.960 ,4,0,1.,1.2,0.,1.2,0.,1.2,,0.0,,0.0
1979-08-06 09:04:14.160 ,4,0,2.,1.2,0.,1.2,0.,1.2,,0.0,,0.0
1979-08-06 09:04:15.360 ,4,0,0.,1.2,0.,1.2,0.,1.2,,0.0,,0.0
1979-08-06 09:04:16.560 ,4,0,0.,1.2,0.,1.2,0.,1.2,,0.0,,0.0
1979-08-06 09:04:17.760 ,4,0,1.,1.2,0.,1.2,0.,1.2,,0.0,,0.0
1979-08-06 09:04:18.960 ,4,0,1.,1.2,0.,1.2,0.,1.2,,0.0,,0.0
1979-08-06 09:04:20.160 ,4,0,1.,1.2,0.,1.2,0.,1.2,,0.0,,0.0
1979-08-06 09:04:21.360 ,4,0,1.,1.2,1.,1.2,1.,1.2,,0.0,,0.0
1979-08-06 09:04:22.560 ,4,0,0.,1.2,0.,1.2,0.,1.2,,0.0,,0.0
1979-08-06 09:04:23.760 ,4,0,0.,1.2,0.,1.2,0.,1.2,,0.0,,0.0
1979-08-06 09:04:24.960 ,4,0,1.,1.2,1.,1.2,0.,1.2,,0.0,,0.0
1979-08-06 09:04:26.160 ,4,0,1.,1.2,1.,1.2,0.,1.2,,0.0,,0.0
1979-08-06 09:04:27.360 ,4,0,,0,,0,,0,,0,,0
1979-08-06 09:04:28.560 ,4,0,0.,1.2,0.,1.2,0.,1.2,,0.0,,0.0
1979-08-06 09:04:29.760 ,4,0,0.,1.2,0.,1.2,0.,1.2,,0.0,,0.0
1979-08-06 09:04:30.960 ,4,0,2.,1.2,0.,1.2,0.,1.2,,0.0,,0.0
1979-08-06 09:04:32.160 ,4,0,1.,1.2,0.,1.2,0.,1.2,,0.0,,0.0
1979-08-06 09:04:33.360 ,4,0,0.,1.2,0.,1.2,0.,1.2,,0.0,,0.0
1979-08-06 09:04:34.560 ,4,0,0.,1.2,0.,1.2,0.,1.2,,0.0,,0.0
1979-08-06 09:04:35.760 ,4,0,0.,1.2,0.,1.2,0.,1.2,,0.0,,0.0
1979-08-06 09:04:36.960 ,4,0,0.,1.2,0.,1.2,0.,1.2,,0.0,,0.0
1979-08-06 09:04:38.160 ,4,0,0.,1.2,0.,1.2,0.,1.2,,0.0,,0.0
1979-08-06 09:04:39.360 ,4,0,0.,1.2,0.,1.2,0.,1.2,,0.0,,0.0
1979-08-06 09:04:40.560 ,4,0,1.,1.2,0.,1.2,0.,1.2,,0.0,,0.0
1979-08-06 09:04:41.760 ,4,0,1.,1.2,0.,1.2,0.,1.2,,0.0,,0.0
1979-08-06 09:04:42.960 ,4,0,2.,1.2,1.,1.2,0.,1.2,,0.0,,0.0
1979-08-06 09:04:44.160 ,4,0,0.,1.2,0.,1.2,0.,1.2,,0.0,,0.0
1979-08-06 09:04:45.360 ,5,0,3.,1.2,1.,1.2,0.,1.2,,0.0,,0.0
1979-08-06 09:04:46.560 ,5,0,1.,1.2,0.,1.2,0.,1.2,,0.0,,0.0
1979-08-06 09:04:47.760 ,5,0,0.,1.2,0.,1.2,0.,1.2,,0.0,,0.0
1979-08-06 09:04:48.960 ,5,0,0.,1.2,0.,1.2,0.,1.2,,0.0,,0.0
1979-08-06 09:04:50.160 ,5,0,0.,1.2,0.,1.2,0.,1.2,,0.0,,0.0
1979-08-06 09:04:51.360 ,5,0,1.,1.2,0.,1.2,0.,1.2,,0.0,,0.0
1979-08-06 09:04:52.560 ,5,0,0.,1.2,0.,1.2,0.,1.2,,0.0,,0.0
1979-08-06 09:04:53.760 ,5,0,2.,1.2,0.,1.2,0.,1.2,,0.0,,0.0
1979-08-06 09:04:54.960 ,5,0,2.,1.2,1.,1.2,0.,1.2,,0.0,,0.0
1979-08-06 09:04:56.160 ,5,0,0.,1.2,0.,1.2,0.,1.2,,0.0,,0.0
1979-08-06 09:04:57.360 ,5,0,0.,1.2,0.,1.2,0.,1.2,,0.0,,0.0
1979-08-06 09:04:58.560 ,5,0,0.,1.2,0.,1.2,0.,1.2,,0.0,,0.0
1979-08-06 09:04:59.760 ,5,0,1.,1.2,0.,1.2,0.,1.2,,0.0,,0.0
1979-08-06 09:05:00.960 ,5,0,0.,1.2,0.,1.2,0.,1.2,,0.0,,0.0
1979-08-06 09:05:02.160 ,5,0,0.,1.2,0.,1.2,0.,1.2,,0.0,,0.0
1979-08-06 09:05:03.360 ,5,0,1.,1.2,0.,1.2,0.,1.2,,0.0,,0.0
1979-08-06 09:05:04.560 ,5,0,0.,1.2,0.,1.2,0.,1.2,,0.0,,0.0
1979-08-06 09:05:05.760 ,5,0,1.,1.2,1.,1.2,0.,1.2,,0.0,,0.0
1979-08-06 09:05:06.960 ,5,0,2.,1.2,0.,1.2,0.,1.2,,0.0,,0.0
1979-08-06 09:05:08.160 ,5,0,2.,1.2,0.,1.2,0.,1.2,,0.0,,0.0
1979-08-06 09:05:09.360 ,5,0,0.,1.2,0.,1.2,0.,1.2,,0.0,,0.0
1979-08-06 09:05:10.560 ,5,0,1.,1.2,1.,1.2,0.,1.2,,0.0,,0.0
1979-08-06 09:05:11.760 ,5,0,1.,1.2,1.,1.2,0.,1.2,,0.0,,0.0
1979-08-06 09:05:12.960 ,5,0,1.,1.2,0.,1.2,0.,1.2,,0.0,,0.0
1979-08-06 09:05:14.160 ,5,0,1.,1.2,0.,1.2,0.,1.2,,0.0,,0.0
1979-08-06 09:05:15.360 ,5,0,0.,1.2,0.,1.2,0.,1.2,,0.0,,0.0
1979-08-06 09:05:16.560 ,5,0,0.,1.2,0.,1.2,0.,1.2,,0.0,,0.0
1979-08-06 09:05:17.760 ,5,0,0.,1.2,0.,1.2,0.,1.2,,0.0,,0.0
1979-08-06 09:05:18.960 ,5,0,0.,1.2,0.,1.2,0.,1.2,,0.0,,0.0
1979-08-06 09:05:20.160 ,5,0,0.,1.2,0.,1.2,0.,1.2,,0.0,,0.0
1979-08-06 09:05:21.360 ,5,0,1.,1.2,0.,1.2,0.,1.2,,0.0,,0.0
1979-08-06 09:05:22.560 ,5,0,1.,1.2,0.,1.2,0.,1.2,,0.0,,0.0
1979-08-06 09:05:23.760 ,5,0,1.,1.2,0.,1.2,0.,1.2,,0.0,,0.0
1979-08-06 09:05:24.960 ,5,0,2.,1.2,1.,1.2,0.,1.2,,0.0,,0.0
1979-08-06 09:05:26.160 ,5,0,0.,1.2,0.,1.2,0.,1.2,,0.0,,0.0
1979-08-06 09:05:27.360 ,5,0,0.,1.2,0.,1.2,0.,1.2,,0.0,,0.0
1979-08-06 09:05:28.560 ,5,0,1.,1.2,0.,1.2,0.,1.2,,0.0,,0.0
1979-08-06 09:05:29.760 ,5,0,0.,1.2,0.,1.2,0.,1.2,,0.0,,0.0
1979-08-06 09:05:30.960 ,5,0,1.,1.2,0.,1.2,0.,1.2,,0.0,,0.0
1979-08-06 09:05:32.160 ,5,0,2.,1.2,0.,1.2,0.,1.2,,0.0,,0.0
1979-08-06 09:05:33.360 ,6,0,0.,1.2,0.,1.2,0.,1.2,,0.0,,0.0
1979-08-06 09:05:34.560 ,6,0,0.,1.2,0.,1.2,0.,1.2,,0.0,,0.0
1979-08-06 09:05:35.760 ,6,0,0.,1.2,0.,1.2,0.,1.2,,0.0,,0.0
1979-08-06 09:05:36.960 ,6,0,0.,1.2,0.,1.2,0.,1.2,,0.0,,0.0
1979-08-06 09:05:38.160 ,6,0,1.,1.2,1.,1.2,0.,1.2,,0.0,,0.0
1979-08-06 09:05:39.360 ,6,0,0.,1.2,0.,1.2,0.,1.2,,0.0,,0.0
1979-08-06 09:05:40.560 ,6,0,1.,1.2,0.,1.2,0.,1.2,,0.0,,0.0
1979-08-06 09:05:41.760 ,6,0,0.,1.2,0.,1.2,0.,1.2,,0.0,,0.0
1979-08-06 09:05:42.960 ,6,0,0.,1.2,0.,1.2,0.,1.2,,0.0,,0.0
1979-08-06 09:05:44.160 ,6,0,0.,1.2,0.,1.2,0.,1.2,,0.0,,0.0
1979-08-06 09:05:45.360 ,6,0,0.,1.2,0.,1.2,0.,1.2,,0.0,,0.0
1979-08-06 09:05:46.560 ,6,0,0.,1.2,0.,1.2,0.,1.2,,0.0,,0.0
1979-08-06 09:05:47.760 ,6,0,1.,1.2,1.,1.2,0.,1.2,,0.0,,0.0
1979-08-06 09:05:48.960 ,6,0,0.,1.2,0.,1.2,0.,1.2,,0.0,,0.0
1979-08-06 09:05:50.160 ,6,0,1.,1.2,1.,1.2,1.,1.2,,0.0,,0.0
1979-08-06 09:05:51.360 ,6,0,0.,1.2,0.,1.2,0.,1.2,,0.0,,0.0
1979-08-06 09:05:52.560 ,6,0,0.,1.2,0.,1.2,0.,1.2,,0.0,,0.0
1979-08-06 09:05:53.760 ,6,0,2.,1.2,0.,1.2,0.,1.2,,0.0,,0.0
1979-08-06 09:05:54.960 ,6,0,0.,1.2,0.,1.2,0.,1.2,,0.0,,0.0
1979-08-06 09:05:56.160 ,6,0,0.,1.2,0.,1.2,0.,1.2,,0.0,,0.0
1979-08-06 09:05:57.360 ,0,0,0.,1.2,0.,1.2,0.,1.2,,0.0,,0.0
1979-08-06 09:05:58.560 ,0,0,0.,1.2,0.,1.2,0.,1.2,,0.0,,0.0
1979-08-06 09:05:59.760 ,0,0,0.,1.2,0.,1.2,0.,1.2,,0.0,,0.0
1979-08-06 09:06:00.960 ,0,0,0.,1.2,0.,1.2,0.,1.2,,0.0,,0.0
1979-08-06 09:06:02.160 ,0,0,0.,1.2,0.,1.2,0.,1.2,,0.0,,0.0
1979-08-06 09:06:03.360 ,0,0,0.,1.2,0.,1.2,0.,1.2,,0.0,,0.0
1979-08-06 09:06:04.560 ,0,0,0.,1.2,0.,1.2,0.,1.2,,0.0,,0.0
1979-08-06 09:06:05.760 ,0,0,0.,1.2,0.,1.2,0.,1.2,,0.0,,0.0
1979-08-06 09:06:06.960 ,0,0,1.,1.2,0.,1.2,0.,1.2,,0.0,,0.0
1979-08-06 09:06:08.160 ,0,0,0.,1.2,0.,1.2,0.,1.2,,0.0,,0.0
1979-08-06 09:06:09.360 ,0,0,2.,1.2,0.,1.2,0.,1.2,,0.0,,0.0
1979-08-06 09:06:10.560 ,0,0,1.,1.2,0.,1.2,0.,1.2,,0.0,,0.0
1979-08-06 09:06:11.760 ,0,0,0.,1.2,0.,1.2,0.,1.2,,0.0,,0.0
1979-08-06 09:06:12.960 ,0,0,0.,1.2,0.,1.2,0.,1.2,,0.0,,0.0
1979-08-06 09:06:14.160 ,0,0,0.,1.2,0.,1.2,0.,1.2,,0.0,,0.0
1979-08-06 09:06:15.360 ,0,0,1.,1.2,0.,1.2,0.,1.2,,0.0,,0.0
1979-08-06 09:06:16.560 ,0,0,,0,,0,,0,,0,,0
1979-08-06 09:06:17.760 ,0,0,,0,,0,,0,,0,,0
1979-08-06 09:06:18.960 ,0,0,,0,,0,,0,,0,,0
1979-08-06 09:06:20.160 ,0,0,,0,,0,,0,,0,,0
1979-08-06 09:06:57.960 ,7,0,,0,,0,,0,,0,,0
1979-08-06 09:06:59.160 ,7,0,,0,,0,,0,,0,,0
1979-08-06 09:07:00.360 ,7,0,,0,,0,,0,,0,,0
1979-08-06 09:07:01.560 ,7,0,,0,,0,,0,,0,,0
1979-08-06 09:07:02.760 ,7,0,,0,,0,,0,,0,,0
1979-08-06 09:07:03.960 ,7,0,,0,,0,,0,,0,,0
1979-08-06 09:07:05.160 ,7,0,,0,,0,,0,,0,,0
1979-08-06 09:07:06.360 ,7,0,,0,,0,,0,,0,,0
1979-08-06 09:07:07.560 ,7,0,,0,,0,,0,,0,,0
1979-08-06 09:07:08.760 ,7,0,,0,,0,,0,,0,,0
1979-08-06 09:07:09.960 ,7,0,,0,,0,,0,,0,,0
1979-08-06 09:07:11.160 ,7,0,0.,1.2,0.,1.2,0.,1.2,,0.0,,0.0
1979-08-06 09:07:12.360 ,7,0,0.,1.2,0.,1.2,0.,1.2,,0.0,,0.0
1979-08-06 09:07:13.560 ,7,0,0.,1.2,0.,1.2,0.,1.2,,0.0,,0.0
1979-08-06 09:07:14.760 ,7,0,0.,1.2,0.,1.2,0.,1.2,,0.0,,0.0
1979-08-06 09:07:15.960 ,7,0,1.,1.2,0.,1.2,0.,1.2,,0.0,,0.0
1979-08-06 09:07:17.160 ,7,0,1.,1.2,0.,1.2,0.,1.2,,0.0,,0.0
1979-08-06 09:07:18.360 ,7,0,2.,1.2,1.,1.2,0.,1.2,,0.0,,0.0
1979-08-06 09:07:19.560 ,7,0,0.,1.2,0.,1.2,0.,1.2,,0.0,,0.0
1979-08-06 09:07:20.760 ,7,0,1.,1.2,0.,1.2,0.,1.2,,0.0,,0.0
1979-08-06 09:07:09.360 ,3,0,0.,1.2,0.,1.2,0.,1.2,,0.0,,0.0
1979-08-06 09:07:10.560 ,3,0,1.,1.2,1.,1.2,0.,1.2,,0.0,,0.0
1979-08-06 09:07:11.760 ,3,0,0.,1.2,0.,1.2,0.,1.2,,0.0,,0.0
1979-08-06 09:07:12.960 ,3,0,0.,1.2,0.,1.2,0.,1.2,,0.0,,0.0
1979-08-06 09:07:14.160 ,3,0,0.,1.2,0.,1.2,0.,1.2,,0.0,,0.0
1979-08-06 09:07:15.360 ,3,0,1.,1.2,0.,1.2,0.,1.2,,0.0,,0.0
1979-08-06 09:07:16.560 ,3,0,2.,1.2,1.,1.2,0.,1.2,,0.0,,0.0
1979-08-06 09:07:17.760 ,3,0,0.,1.2,0.,1.2,0.,1.2,,0.0,,0.0
1979-08-06 09:07:18.960 ,3,0,0.,1.2,0.,1.2,0.,1.2,,0.0,,0.0
1979-08-06 09:07:20.160 ,3,0,1.,1.2,0.,1.2,0.,1.2,,0.0,,0.0
1979-08-06 09:07:21.360 ,3,0,1.,1.2,0.,1.2,0.,1.2,,0.0,,0.0
1979-08-06 09:07:22.560 ,3,0,0.,1.2,0.,1.2,0.,1.2,,0.0,,0.0
1979-08-06 09:07:23.760 ,3,0,0.,1.2,0.,1.2,0.,1.2,,0.0,,0.0
1979-08-06 09:07:24.960 ,3,0,0.,1.2,0.,1.2,0.,1.2,,0.0,,0.0
1979-08-06 09:07:26.160 ,3,0,0.,1.2,0.,1.2,0.,1.2,,0.0,,0.0
1979-08-06 09:07:27.360 ,3,0,1.,1.2,0.,1.2,0.,1.2,,0.0,,0.0
1979-08-06 09:07:28.560 ,3,0,0.,1.2,0.,1.2,0.,1.2,,0.0,,0.0
1979-08-06 09:07:29.760 ,3,0,1.,1.2,0.,1.2,0.,1.2,,0.0,,0.0
1979-08-06 09:07:30.960 ,3,0,0.,1.2,0.,1.2,0.,1.2,,0.0,,0.0
1979-08-06 09:07:32.160 ,3,0,1.,1.2,0.,1.2,0.,1.2,,0.0,,0.0
1979-08-06 09:07:33.360 ,0,0,0.,1.2,0.,1.2,0.,1.2,,0.0,,0.0
1979-08-06 09:07:34.560 ,0,0,0.,1.2,0.,1.2,0.,1.2,,0.0,,0.0
1979-08-06 09:07:35.760 ,0,0,0.,1.2,0.,1.2,0.,1.2,,0.0,,0.0
1979-08-06 09:07:36.960 ,0,0,1.,1.2,0.,1.2,0.,1.2,,0.0,,0.0
1979-08-06 09:07:38.160 ,0,0,1.,1.2,0.,1.2,0.,1.2,,0.0,,0.0
1979-08-06 09:07:39.360 ,0,0,0.,1.2,0.,1.2,0.,1.2,,0.0,,0.0
1979-08-06 09:07:40.560 ,0,0,1.,1.2,0.,1.2,0.,1.2,,0.0,,0.0
1979-08-06 09:07:41.760 ,0,0,1.,1.2,0.,1.2,0.,1.2,,0.0,,0.0
1979-08-06 09:07:42.960 ,0,0,1.,1.2,1.,1.2,0.,1.2,,0.0,,0.0
1979-08-06 09:07:44.160 ,0,0,2.,1.2,0.,1.2,0.,1.2,,0.0,,0.0
1979-08-06 09:07:45.360 ,0,0,0.,1.2,0.,1.2,0.,1.2,,0.0,,0.0
1979-08-06 09:07:46.560 ,0,0,2.,1.2,0.,1.2,0.,1.2,,0.0,,0.0
1979-08-06 09:07:47.760 ,0,0,0.,1.2,0.,1.2,0.,1.2,,0.0,,0.0
1979-08-06 09:07:48.960 ,0,0,0.,1.2,0.,1.2,0.,1.2,,0.0,,0.0
1979-08-06 09:07:50.160 ,0,0,1.,1.2,0.,1.2,0.,1.2,,0.0,,0.0
1979-08-06 09:07:51.360 ,0,0,1.,1.2,1.,1.2,0.,1.2,,0.0,,0.0
1979-08-06 09:07:52.560 ,0,0,1.,1.2,0.,1.2,0.,1.2,,0.0,,0.0
1979-08-06 09:07:53.760 ,0,0,1.,1.2,1.,1.2,0.,1.2,,0.0,,0.0
1979-08-06 09:07:54.960 ,0,0,2.,1.2,0.,1.2,0.,1.2,,0.0,,0.0
1979-08-06 09:07:56.160 ,0,0,0.,1.2,0.,1.2,0.,1.2,,0.0,,0.0
1979-08-06 09:07:57.360 ,4,0,1.,1.2,0.,1.2,0.,1.2,,0.0,,0.0
1979-08-06 09:07:58.560 ,4,0,0.,1.2,0.,1.2,0.,1.2,,0.0,,0.0
1979-08-06 09:07:59.760 ,4,0,2.,1.2,0.,1.2,0.,1.2,,0.0,,0.0
1979-08-06 09:08:00.960 ,4,0,0.,1.2,0.,1.2,0.,1.2,,0.0,,0.0
1979-08-06 09:08:02.160 ,4,0,2.,1.2,0.,1.2,0.,1.2,,0.0,,0.0
1979-08-06 09:08:03.360 ,4,0,0.,1.2,0.,1.2,0.,1.2,,0.0,,0.0
1979-08-06 09:08:04.560 ,4,0,1.,1.2,0.,1.2,0.,1.2,,0.0,,0.0
1979-08-06 09:08:05.760 ,4,0,1.,1.2,0.,1.2,0.,1.2,,0.0,,0.0
1979-08-06 09:08:06.960 ,4,0,0.,1.2,0.,1.2,0.,1.2,,0.0,,0.0
1979-08-06 09:08:08.160 ,4,0,0.,1.2,0.,1.2,0.,1.2,,0.0,,0.0
1979-08-06 09:08:09.360 ,4,0,2.,1.2,1.,1.2,0.,1.2,,0.0,,0.0
1979-08-06 09:08:10.560 ,4,0,1.,1.2,0.,1.2,0.,1.2,,0.0,,0.0
1979-08-06 09:08:11.760 ,4,0,0.,1.2,0.,1.2,0.,1.2,,0.0,,0.0
1979-08-06 09:08:12.960 ,4,0,2.,1.2,0.,1.2,0.,1.2,,0.0,,0.0
1979-08-06 09:08:14.160 ,4,0,0.,1.2,0.,1.2,0.,1.2,,0.0,,0.0
1979-08-06 09:08:15.360 ,4,0,1.,1.2,0.,1.2,0.,1.2,,0.0,,0.0
1979-08-06 09:08:16.560 ,4,0,0.,1.2,0.,1.2,0.,1.2,,0.0,,0.0
1979-08-06 09:08:17.760 ,4,0,0.,1.2,0.,1.2,0.,1.2,,0.0,,0.0
1979-08-06 09:08:18.960 ,4,0,0.,1.2,0.,1.2,0.,1.2,,0.0,,0.0
1979-08-06 09:08:20.160 ,4,0,1.,1.2,0.,1.2,0.,1.2,,0.0,,0.0
1979-08-06 09:08:21.360 ,7,0,0.,1.2,0.,1.2,0.,1.2,,0.0,,0.0
1979-08-06 09:08:22.560 ,7,0,1.,1.2,0.,1.2,0.,1.2,,0.0,,0.0
1979-08-06 09:08:23.760 ,7,0,0.,1.2,0.,1.2,0.,1.2,,0.0,,0.0
1979-08-06 09:08:24.960 ,7,0,0.,1.2,0.,1.2,0.,1.2,,0.0,,0.0
1979-08-06 09:08:26.160 ,7,0,1.,1.2,0.,1.2,0.,1.2,,0.0,,0.0
1979-08-06 09:08:27.360 ,7,0,0.,1.2,0.,1.2,0.,1.2,,0.0,,0.0
1979-08-06 09:08:28.560 ,7,0,0.,1.2,0.,1.2,0.,1.2,,0.0,,0.0
1979-08-06 09:08:29.760 ,7,0,0.,1.2,0.,1.2,0.,1.2,,0.0,,0.0
1979-08-06 09:08:30.960 ,7,0,0.,1.2,0.,1.2,0.,1.2,,0.0,,0.0
1979-08-06 09:08:32.160 ,7,0,0.,1.2,0.,1.2,0.,1.2,,0.0,,0.0
1979-08-06 09:08:33.360 ,7,0,0.,1.2,0.,1.2,0.,1.2,,0.0,,0.0
1979-08-06 09:08:34.560 ,7,0,2.,1.2,0.,1.2,0.,1.2,,0.0,,0.0
1979-08-06 09:08:35.760 ,7,0,1.,1.2,1.,1.2,1.,1.2,,0.0,,0.0
1979-08-06 09:08:36.960 ,7,0,0.,1.2,0.,1.2,0.,1.2,,0.0,,0.0
1979-08-06 09:08:38.160 ,7,0,1.,1.2,1.,1.2,0.,1.2,,0.0,,0.0
1979-08-06 09:08:39.360 ,7,0,0.,1.2,0.,1.2,0.,1.2,,0.0,,0.0